Theta_e
326 327 326 326 326 326 326 326 326 326 326 326 326 325 325 324 323 322 321 318 316 316 315 312 313 313 309 307 307 306 307 307 307 308 309 309 310 310 311 311 311 310 307 304 302 301 301 301 301 301 301 301 301 301 301 301 301 301 302 301 301 301 301 301 301 301 301 301 301 300 300 300 300 300
327 328 327 327 327 326 326 326 326 326 326 327 326 326 326 324 323 322 319 317 316 316 315 313 314 312 308 307 307 307 307 308 308 310 310 310 311 311 312 312 312 311 310 307 304 302 301 301 301 301 301 301 301 302 302 301 302 301 301 301 301 301 301 301 301 301 301 300 300 300 300 300 300 299
327 328 328 328 328 327 326 326 326 326 326 326 325 325 325 324 323 321 319 317 316 316 316 314 315 313 308 307 308 308 308 309 309 310 310 311 311 312 312 313 313 312 311 310 308 304 302 301 301 301 301 302 302 302 302 302 301 301 301 301 301 301 301 301 300 300 300 300 299 299 299 299 299 299
326 327 327 328 328 327 327 327 325 324 324 323 323 323 324 324 323 321 319 317 316 316 316 314 314 312 308 308 309 308 309 309 309 310 310 311 312 312 313 313 313 313 312 311 310 307 304 302 301 302 302 302 302 302 302 301 302 302 301 301 301 301 301 300 300 299 299 299 299 299 299 299 299 299
324 325 327 328 328 327 327 326 324 322 322 322 322 321 322 322 323 322 319 318 316 316 316 315 313 312 310 311 311 310 309 309 310 310 310 311 312 313 313 313 313 313 313 312 311 309 306 303 302 302 302 302 302 302 302 302 302 302 302 301 301 300 300 299 299 299 299 299 299 299 299 299 299 299
322 324 327 328 327 326 326 324 322 321 321 320 320 320 321 320 321 321 319 318 316 315 315 314 313 312 311 312 312 310 310 310 310 310 310 311 312 313 313 314 313 314 313 312 311 310 308 305 303 302 302 302 302 302 302 302 302 302 301 301 300 300 299 299 299 299 299 299 299 298 298 298 298 298
323 324 325 326 326 324 323 322 321 320 319 319 318 318 320 319 319 320 319 318 316 315 314 314 313 312 311 312 312 311 310 310 310 311 311 311 312 313 314 313 313 314 313 313 312 311 309 307 305 303 302 302 302 302 302 302 302 302 301 300 300 299 299 299 299 299 298 298 298 298 298 298 298 298
323 322 322 324 324 322 321 321 320 318 318 318 317 316 318 318 318 319 319 318 317 315 314 313 313 313 311 312 312 311 311 311 311 312 312 312 314 314 314 314 313 314 314 313 313 312 311 309 306 304 303 302 302 302 302 302 301 301 300 300 299 299 299 299 298 298 298 298 298 298 298 298 297 297
322 321 321 323 323 321 321 321 320 318 319 319 316 316 317 316 317 319 318 318 318 316 315 313 313 313 311 311 313 312 311 312 312 312 313 313 315 314 313 313 314 314 314 314 314 313 312 311 309 306 304 302 302 302 301 301 301 300 299 299 299 299 298 298 298 298 298 298 298 298 298 297 297 297
321 321 321 322 321 320 321 322 320 319 319 319 317 317 316 315 316 317 316 317 317 316 315 313 313 313 311 311 313 313 312 313 313 313 313 314 315 314 313 313 313 314 314 314 313 313 313 312 311 308 305 303 302 302 301 301 300 299 299 299 298 298 298 298 298 298 298 297 297 297 297 297 297 297
320 320 321 321 321 319 320 321 321 321 320 319 318 318 317 317 316 315 315 316 316 315 315 314 312 313 312 311 313 314 313 314 314 313 314 314 314 314 314 314 313 313 313 313 313 313 313 313 312 311 307 305 303 301 301 300 299 299 299 298 298 298 298 298 298 297 297 297 297 297 297 297 297 297
319 319 319 320 320 319 320 320 320 321 320 320 320 319 318 318 317 316 315 316 316 316 316 315 314 314 314 313 313 314 314 314 314 314 314 315 314 314 314 314 314 313 313 313 313 313 313 313 313 311 308 305 303 302 301 300 299 298 298 298 298 298 298 298 298 297 297 297 297 297 297 297 297 297
319 319 319 319 319 319 320 320 320 320 319 319 320 319 318 319 319 318 317 316 316 316 316 316 316 316 316 315 314 314 314 315 315 315 315 315 315 315 315 314 314 314 314 313 313 314 313 313 312 310 307 305 303 303 303 302 300 298 298 298 298 298 297 297 297 297 297 297 297 297 297 297 297 297
321 321 320 320 320 319 319 319 319 319 318 319 319 319 318 318 319 319 318 317 317 317 317 317 317 316 316 316 316 315 315 315 315 315 315 316 315 315 315 315 314 314 314 314 313 313 313 312 310 309 308 306 304 304 304 304 302 300 298 298 298 297 297 297 297 297 297 297 297 296 296 296 296 296
322 322 321 321 321 320 319 318 317 317 317 317 318 318 319 319 319 318 319 318 318 318 318 318 318 317 317 317 317 316 316 316 316 315 315 316 316 315 315 315 314 314 314 314 313 313 313 312 311 310 309 308 306 305 305 304 303 301 299 298 297 297 297 297 296 296 296 296 296 296 296 296 296 296
322 322 321 321 320 319 318 317 316 316 315 315 315 316 316 317 318 318 318 318 318 318 319 318 318 318 317 317 317 317 317 317 316 316 316 315 316 316 316 315 315 315 315 314 314 313 313 312 312 311 310 310 308 306 304 304 303 301 300 299 298 296 296 296 296 296 296 296 296 296 296 296 296 296
321 321 321 321 319 318 318 317 316 316 315 316 317 317 316 315 315 316 317 316 316 316 317 318 318 318 318 318 318 317 318 317 317 317 317 316 316 316 316 316 316 316 315 315 314 314 313 313 312 311 311 310 309 306 304 304 303 302 301 300 298 296 296 296 296 296 296 296 296 296 296 296 296 297
320 320 320 320 319 319 318 317 316 316 315 316 317 318 319 318 316 315 316 315 315 315 315 315 316 317 317 318 318 317 317 317 317 317 317 317 316 316 316 316 316 316 315 315 315 314 313 313 312 311 310 309 308 306 304 304 304 304 302 300 298 297 296 296 295 296 296 297 297 297 296 296 297 297
320 320 320 319 318 319 318 317 316 316 316 316 316 317 319 320 319 318 317 316 316 315 315 315 314 314 315 316 317 318 318 317 317 317 317 317 316 316 317 317 316 316 316 315 315 314 313 312 312 311 309 308 306 305 305 305 304 304 303 301 300 298 297 296 296 296 297 297 297 297 297 296 296 297
318 319 319 319 319 319 319 318 317 316 315 316 316 316 318 320 320 319 318 317 317 316 317 316 316 316 315 315 316 317 318 318 318 318 317 316 317 317 317 316 316 316 316 315 314 313 313 312 310 308 308 308 306 305 305 304 304 303 302 301 300 299 297 297 297 298 298 298 297 297 297 297 296 296
318 318 319 319 318 317 317 318 318 316 316 316 316 316 317 319 320 319 318 318 317 316 316 316 316 317 316 316 316 316 316 317 318 318 318 317 317 317 317 316 316 315 315 314 313 312 312 311 309 307 308 308 307 305 305 304 303 302 301 301 301 300 298 297 298 299 298 298 298 297 297 297 296 296
318 317 317 317 317 316 317 317 317 316 316 317 317 316 317 319 320 319 319 318 318 317 316 316 316 316 316 316 316 316 316 316 316 317 318 317 317 317 317 316 315 314 313 313 312 311 310 309 307 305 306 307 306 305 304 303 302 302 302 302 301 299 298 298 299 299 298 298 298 297 297 297 296 296
318 318 318 318 318 318 317 318 318 317 317 318 318 317 317 319 320 319 319 318 318 318 317 316 316 317 317 316 316 316 317 317 317 316 316 317 317 316 316 315 313 313 313 311 310 309 308 306 304 303 304 305 304 304 303 303 303 303 303 302 301 300 299 299 299 299 298 298 298 298 297 297 296 296
319 319 318 318 317 317 316 316 316 316 316 317 317 317 317 318 318 318 318 317 317 317 318 317 316 316 317 316 315 315 316 317 317 316 315 315 316 315 315 313 312 313 313 310 308 307 306 304 303 303 303 303 303 302 303 303 303 303 302 301 301 300 300 300 299 299 298 298 298 297 297 297 296 296
318 318 317 317 317 316 315 314 313 313 313 314 314 315 316 316 316 316 316 316 316 316 316 316 316 315 316 316 315 315 315 315 316 315 314 314 314 314 314 313 312 313 312 308 306 306 305 304 303 303 303 302 302 301 301 301 302 302 301 301 301 300 300 300 299 299 298 298 297 297 297 297 296 296
317 317 316 317 316 315 314 313 312 311 311 311 311 311 312 313 315 315 315 315 315 315 315 316 316 316 316 316 315 314 314 314 314 314 313 313 313 313 313 312 311 311 309 306 304 305 305 304 303 302 301 301 301 300 299 299 300 301 301 301 300 300 300 300 299 298 298 298 297 297 297 297 296 296
314 315 315 316 315 315 314 313 311 310 310 310 310 309 310 311 313 314 315 314 314 314 315 315 316 316 315 315 314 313 313 313 313 312 312 312 312 312 311 311 310 308 305 303 303 303 302 301 300 299 299 298 298 298 298 298 299 301 301 300 300 300 300 299 299 298 298 298 297 297 297 296 296 296
309 310 311 312 312 312 311 310 309 308 308 308 308 308 308 309 311 313 314 314 313 313 313 313 314 314 314 313 313 311 311 311 311 311 311 310 311 310 310 309 308 305 303 303 303 302 300 299 299 298 298 298 297 296 296 296 298 300 300 300 300 300 299 299 298 298 298 297 297 296 296 296 295 295
306 306 307 307 308 308 308 307 307 307 307 307 307 308 308 308 309 312 313 313 312 312 312 312 312 312 312 311 311 310 310 309 309 309 309 309 309 309 309 308 307 305 303 302 300 299 298 299 299 298 298 297 297 296 296 296 297 298 299 299 299 299 299 298 298 298 298 297 296 296 296 295 295 295
303 302 302 303 302 303 304 305 305 306 306 306 306 307 307 307 308 310 311 312 312 312 311 311 311 311 310 310 309 308 308 308 308 307 307 307 307 307 306 305 303 301 300 299 298 298 298 299 299 298 297 296 296 296 295 295 296 298 298 298 298 298 298 298 298 297 297 296 296 295 295 295 295 295
301 299 299 299 299 300 302 303 303 304 305 306 306 306 306 306 307 307 308 309 310 311 311 310 310 309 309 308 308 307 307 307 307 306 306 307 306 303 300 300 299 298 298 298 298 298 298 298 297 297 296 296 296 296 295 296 297 298 298 298 298 298 298 297 297 297 296 295 295 295 295 295 295 295
300 299 298 299 300 303 305 305 305 305 305 306 306 305 305 305 305 306 306 306 308 309 309 309 309 308 307 307 308 307 307 307 306 305 305 305 302 299 297 297 298 298 298 297 297 297 297 297 297 298 298 297 295 295 295 296 297 297 297 297 298 297 297 297 297 296 296 295 296 295 295 295 295 295
298 298 299 300 302 305 305 305 305 305 305 305 305 305 304 303 303 304 305 305 306 307 308 308 308 308 307 307 307 307 306 305 304 304 303 301 298 297 297 297 297 297 297 297 297 298 298 298 298 298 298 296 295 295 295 296 296 296 297 297 297 297 297 296 296 296 296 296 296 296 295 295 295 294
298 298 300 302 304 305 305 305 305 304 304 304 304 304 304 303 302 302 303 304 304 305 306 307 307 307 307 306 306 304 304 304 303 301 299 298 296 296 297 297 297 298 298 298 298 298 298 298 298 298 297 296 296 296 296 296 296 296 296 297 296 296 296 296 295 295 296 296 295 295 295 295 294 294
299 301 302 304 304 304 304 304 304 304 304 304 304 304 303 303 303 302 302 303 303 304 305 305 306 305 305 304 302 301 301 301 300 298 297 296 296 297 297 297 297 298 298 298 298 297 297 297 297 297 296 296 296 296 296 296 297 297 297 297 296 296 296 295 295 295 295 295 295 295 295 295 294 294
302 303 304 304 304 303 303 303 303 303 303 303 303 303 303 303 303 303 303 303 303 303 303 304 304 304 303 301 300 300 299 299 298 297 296 296 296 297 297 297 298 298 298 298 298 297 296 296 296 296 296 295 296 296 295 295 296 297 297 296 296 295 295 295 295 295 295 295 295 295 295 294 295 295
303 303 303 303 303 302 302 302 303 303 303 303 302 302 302 302 301 302 302 302 302 302 302 302 303 303 301 300 299 298 298 297 297 296 296 296 296 297 297 298 298 298 298 297 296 296 296 296 295 295 295 295 295 295 295 295 296 297 296 296 295 295 294 294 294 294 294 294 294 294 294 295 295 294
302 302 302 302 301 301 301 301 301 302 302 301 301 301 301 300 300 300 300 301 301 301 301 301 301 301 300 299 298 297 297 297 296 296 296 297 297 298 298 298 297 297 296 295 295 295 295 295 295 295 295 295 295 295 295 295 296 296 295 295 294 294 294 294 294 294 294 295 295 294 294 294 294 294
301 301 301 301 301 301 301 301 301 300 300 300 299 299 299 299 299 299 300 300 300 300 300 300 300 300 299 299 298 297 297 297 296 296 297 298 298 298 297 296 295 294 294 294 294 295 294 294 294 294 294 294 294 294 294 294 295 294 294 293 294 294 294 294 294 294 294 294 294 294 294 294 294 294
300 301 301 300 300 300 299 299 299 299 299 299 299 298 298 298 298 299 300 300 299 299 299 299 299 299 299 298 298 297 296 296 296 297 297 297 297 295 294 294 294 293 293 293 293 293 293 293 293 294 293 293 293 293 293 293 293 293 293 293 294 294 294 294 294 294 294 294 294 294 293 293 293 294
300 300 300 300 299 299 298 298 297 297 297 297 297 297 297 297 297 298 298 299 298 298 298 298 298 298 297 297 297 296 296 296 296 296 295 295 294 293 292 292 292 292 292 292 293 293 292 293 293 293 293 292 292 292 292 292 292 293 293 293 293 293 293 294 293 293 293 293 293 294 293 293 293 293
299 299 299 299 298 298 297 297 297 297 296 296 296 297 297 297 297 297 297 298 298 297 297 297 297 296 296 296 296 296 295 295 294 293 293 293 293 293 292 292 292 292 292 292 292 293 292 292 292 292 292 292 292 292 292 292 293 293 292 292 292 292 293 293 293 293 293 294 294 294 294 294 294 294
297 297 297 297 297 297 297 297 297 297 297 297 296 297 298 298 298 297 297 297 297 297 296 296 296 295 295 295 295 294 294 293 293 293 293 292 292 292 292 292 292 292 292 292 292 292 292 292 292 292 292 292 292 292 292 292 292 292 292 292 292 292 291 291 292 293 293 294 294 294 294 294 294 294
296 297 297 297 297 297 298 298 297 297 297 297 297 297 297 297 298 297 297 297 297 296 296 295 295 295 295 294 294 294 293 293 293 293 293 292 292 292 292 292 292 292 292 292 292 292 292 292 292 292 292 292 292 292 292 292 292 292 292 291 291 291 291 291 292 293 293 293 293 294 294 294 294 294
297 297 297 297 297 297 298 297 297 297 297 297 297 297 296 297 297 297 297 296 296 296 295 295 295 294 294 293 293 293 293 293 293 292 292 293 292 292 292 292 292 292 292 292 292 292 291 291 291 291 292 292 292 291 291 291 291 291 291 291 291 292 292 292 292 293 293 293 293 293 294 294 294 294
Wind_Speed
9 9 10 11 10 9 8 10 11 10 12 14 12 12 17 21 23 22 19 19 20 17 14 12 9 10 12 13 14 15 15 15 14 12 10 9 9 9 8 8 7 7 7 7 7 7 7 7 8 8 7 7 7 6 6 5 4 3 2 2 1 1 1 1 2 2 3 3 3 4 4 5 6 7
10 10 10 10 9 8 8 10 10 10 11 12 12 13 14 16 20 22 21 21 19 16 14 13 12 12 14 15 16 17 16 15 13 10 9 7 7 7 7 6 6 6 6 6 5 5 6 6 7 7 6 6 6 5 5 4 3 3 2 1 1 0 1 1 2 2 3 3 4 5 6 7 8 8
9 10 10 9 8 8 9 10 10 10 10 11 13 12 12 16 19 20 20 20 18 16 16 15 12 11 15 16 16 17 16 14 12 10 8 7 7 6 6 6 5 5 5 4 5 4 5 5 6 6 6 5 5 5 5 4 3 3 2 2 2 2 2 2 3 3 4 5 6 7 7 8 9 10
9 10 10 10 10 10 9 10 11 11 10 10 9 8 10 15 18 19 18 18 18 16 16 16 12 11 14 15 16 17 16 13 11 10 8 7 7 7 6 6 4 4 4 3 4 4 4 5 5 5 5 5 5 5 4 4 3 3 3 3 3 3 3 3 4 5 5 6 7 8 9 10 11 12
7 9 10 10 11 11 11 11 12 11 10 8 7 6 7 11 16 18 18 18 18 17 15 15 12 10 13 15 14 14 15 13 11 11 10 9 8 8 7 7 5 4 3 3 2 3 3 4 5 6 5 5 5 4 4 4 3 3 4 4 4 4 4 4 5 6 7 8 8 9 10 11 12 13
7 9 9 10 11 11 12 13 12 12 10 9 9 7 6 7 12 16 17 18 19 18 17 15 13 12 14 17 15 13 13 13 11 11 12 12 11 10 9 7 6 4 3 2 2 1 2 3 4 5 5 4 4 4 4 4 4 4 4 4 4 4 5 6 7 7 8 9 10 11 12 13 14 15
8 8 8 10 11 12 14 12 10 12 11 10 9 7 6 6 9 15 18 17 19 19 17 16 16 15 16 17 16 14 13 12 12 11 11 12 12 12 11 8 6 5 4 2 1 1 1 1 3 3 4 4 4 4 4 4 4 4 5 5 5 5 6 7 8 8 10 11 12 13 13 14 15 16
8 6 7 11 12 12 15 11 9 11 10 7 7 8 8 6 8 14 16 14 16 17 16 16 17 16 16 16 16 16 14 13 14 13 11 10 10 12 11 9 8 7 5 4 2 2 3 2 2 3 3 4 4 4 5 5 5 6 6 6 6 6 7 8 9 10 11 12 13 14 15 16 17 18
7 5 6 9 11 12 13 10 9 11 8 5 7 8 7 7 8 10 12 12 13 13 14 16 17 16 16 17 17 18 17 14 14 16 13 8 10 17 16 12 12 9 6 6 5 5 5 5 5 4 4 5 5 5 6 6 6 7 7 7 7 8 9 9 10 11 12 12 14 15 16 17 18 18
7 8 8 8 9 11 12 9 8 9 6 4 8 7 6 9 11 10 10 11 11 10 11 14 15 17 16 16 18 19 18 15 14 18 17 10 12 23 24 18 15 12 9 9 9 8 8 8 8 7 7 7 7 7 7 7 7 7 7 8 9 9 10 11 12 12 13 14 15 16 17 18 19 19
7 7 8 7 7 9 11 10 10 10 8 6 8 9 7 8 10 9 10 10 10 10 12 13 14 16 16 15 18 18 18 17 15 16 20 17 17 23 25 22 21 19 17 15 13 12 11 11 11 10 10 9 9 9 9 8 8 8 8 10 10 11 12 13 13 14 14 15 16 17 18 19 20 20
8 5 5 5 4 5 8 9 10 11 12 11 11 12 11 9 7 9 12 12 10 10 13 14 13 15 16 16 17 18 18 20 19 17 19 22 22 23 23 24 25 24 22 20 17 15 13 13 13 13 12 11 10 10 9 7 8 9 10 11 12 13 13 14 14 15 16 17 18 19 20 20 21 21
7 5 4 4 4 4 5 6 8 8 10 11 11 11 13 12 9 10 13 14 12 10 12 15 14 15 17 18 18 20 22 22 23 21 19 22 25 25 24 24 26 26 24 20 18 17 14 12 13 12 11 11 10 10 9 7 7 9 11 12 13 13 14 14 15 16 17 18 19 20 21 21 21 21
6 5 6 6 6 7 7 7 8 8 8 9 10 10 11 12 12 12 13 14 14 12 12 14 14 16 19 20 20 21 22 22 23 23 22 22 25 26 25 25 25 26 23 18 16 16 13 10 10 10 12 12 11 11 11 10 10 11 13 14 14 14 14 15 15 16 17 18 19 20 21 21 21 21
4 6 9 8 7 9 10 10 9 10 10 10 12 13 13 12 13 13 13 14 15 15 15 16 16 17 18 20 21 21 22 22 23 24 24 24 25 26 25 25 24 25 24 20 17 16 13 11 12 13 15 16 14 15 16 16 15 15 15 16 16 15 15 16 17 18 19 19 20 21 21 21 21 20
4 5 6 6 6 7 9 10 10 9 10 10 11 13 15 15 15 16 16 16 17 18 19 20 20 21 21 21 21 21 23 24 25 26 26 27 28 28 28 28 26 26 25 23 20 18 16 15 15 15 18 18 18 19 20 20 19 18 18 19 19 17 17 18 19 20 20 21 21 21 21 21 20 20
6 6 6 5 5 5 7 9 11 11 11 10 10 11 13 15 16 17 18 19 19 21 22 23 23 23 24 25 25 23 24 26 26 27 28 30 30 29 30 31 29 27 25 23 23 22 20 18 17 16 17 19 20 21 21 21 21 20 19 19 19 18 18 19 20 20 20 21 21 21 20 19 18 18
6 7 8 8 7 7 9 9 10 12 15 15 14 12 12 12 13 14 16 18 19 21 23 25 26 25 26 28 28 28 28 29 29 30 30 31 30 29 29 30 30 29 27 25 24 24 22 20 18 17 17 18 18 17 17 19 20 20 20 19 18 18 19 20 21 20 19 19 19 18 17 16 16 15
7 8 9 10 9 9 12 12 12 14 16 18 18 16 14 12 12 14 15 16 17 19 21 24 27 27 28 28 28 28 29 30 30 31 31 29 28 29 29 30 31 31 31 29 26 23 21 18 16 17 16 13 13 14 15 17 19 19 20 20 20 20 20 21 20 18 17 18 18 16 15 14 14 14
8 9 10 11 11 12 14 15 16 17 18 18 18 17 16 14 15 17 17 18 19 19 19 21 23 25 28 28 28 28 29 29 27 27 30 30 31 33 33 31 31 30 30 30 26 22 21 18 13 14 14 12 13 14 16 17 19 20 21 21 21 20 20 20 18 17 18 20 21 20 18 17 17 16
9 9 11 13 15 16 17 18 18 19 19 18 18 17 18 18 18 20 20 21 22 22 22 23 22 23 25 27 29 29 29 29 27 26 28 32 34 36 35 33 32 29 27 27 25 22 22 18 14 13 12 12 14 16 17 19 20 21 21 21 21 20 19 17 16 17 19 21 22 23 22 22 21 21
11 12 14 16 18 19 19 19 18 18 19 19 18 19 21 20 20 22 23 24 25 25 25 26 25 24 25 26 29 30 30 30 30 28 29 32 35 35 32 30 28 23 22 24 23 20 19 16 14 14 12 13 14 16 18 18 19 20 20 19 19 19 18 15 14 17 18 18 19 21 22 22 22 22
12 13 13 15 17 18 17 15 12 13 15 17 18 20 21 22 23 25 25 26 27 28 28 27 27 27 27 25 26 28 30 32 32 31 31 32 33 33 29 26 23 21 22 22 19 18 15 12 13 15 14 14 13 11 13 15 16 16 16 16 18 19 17 13 12 15 16 16 17 19 20 21 22 23
10 10 10 11 12 11 9 9 8 10 13 15 17 18 21 23 24 25 26 26 27 28 28 28 28 30 29 27 25 27 29 32 33 31 30 30 31 31 30 27 24 24 24 22 19 18 15 11 12 14 13 12 10 7 7 9 12 13 13 16 19 20 15 10 11 15 15 13 14 17 19 20 22 22
9 9 7 7 8 7 7 8 10 11 13 14 16 17 19 21 22 23 25 25 25 27 28 29 29 30 29 28 28 29 29 30 31 30 30 30 30 30 30 29 29 28 24 18 17 19 18 15 15 14 12 12 12 11 10 10 10 12 15 17 18 16 10 9 12 14 13 12 13 16 17 19 20 20
8 8 7 8 9 10 11 12 13 14 15 16 17 18 19 20 20 21 22 23 24 26 28 29 30 30 29 29 29 28 28 29 29 29 29 30 30 30 29 29 29 27 21 16 16 18 17 14 12 11 11 12 14 13 13 14 11 10 13 15 14 10 9 11 13 11 10 12 14 16 17 17 17 17
9 9 9 11 12 14 15 17 17 18 19 19 19 19 19 20 20 20 20 21 23 24 26 28 29 29 30 29 27 26 27 27 27 27 28 28 28 28 27 26 24 20 15 14 15 13 10 9 9 10 12 13 15 16 16 14 10 7 8 9 10 10 12 13 13 13 15 17 16 16 17 17 16 16
10 11 12 14 15 17 18 19 20 21 21 20 21 20 20 20 20 19 19 19 20 23 25 27 28 29 30 28 25 25 25 24 24 24 24 24 25 25 24 23 21 17 13 12 12 12 13 13 12 12 13 14 16 16 15 14 13 12 12 11 10 12 14 15 15 17 19 19 17 17 18 17 15 15
11 12 13 14 15 16 17 19 20 20 21 21 20 21 20 19 19 18 16 16 17 20 21 23 24 24 25 23 22 22 22 21 22 22 19 20 22 23 22 22 21 19 17 16 15 15 15 15 13 13 13 14 15 15 14 16 16 15 15 14 12 11 14 17 18 19 21 19 16 16 15 15 15 15
12 13 13 12 13 15 16 17 17 18 19 19 19 19 18 18 17 16 15 14 16 18 18 19 19 19 20 21 21 21 21 22 22 20 18 18 19 19 19 20 19 18 17 16 16 16 16 15 14 13 13 13 14 14 15 15 14 13 13 11 9 10 16 19 20 20 19 16 14 14 14 15 15 15
13 14 14 14 14 14 14 15 16 16 15 17 19 19 17 16 15 15 14 13 15 17 19 19 19 20 21 22 21 22 23 23 22 19 18 19 18 15 15 16 16 15 15 15 16 16 14 13 13 14 14 14 13 14 14 12 11 13 11 7 6 11 16 18 19 18 16 14 14 14 13 15 16 15
14 14 14 14 13 12 12 14 15 14 13 14 17 20 20 19 17 15 13 12 13 15 18 20 21 22 22 21 22 24 25 24 22 20 20 20 17 14 14 15 16 16 15 14 13 11 10 11 12 12 12 11 11 11 12 12 13 14 10 5 8 14 16 16 16 16 14 14 14 14 14 15 16 15
12 11 10 9 9 10 11 11 11 10 10 12 15 18 21 22 21 18 15 12 12 14 17 20 23 24 23 23 23 24 24 23 21 19 19 17 16 16 16 15 14 13 12 12 11 11 11 10 10 9 8 8 6 6 8 9 9 9 8 7 12 16 16 16 15 14 13 14 13 14 15 16 16 15
10 10 8 8 9 10 10 10 9 9 10 11 12 15 18 20 22 21 17 14 13 13 15 18 22 23 23 23 22 22 23 22 19 17 16 16 16 16 15 12 11 10 10 9 9 9 8 6 7 8 9 8 6 6 8 10 11 8 7 9 14 16 16 17 15 13 13 12 13 14 15 16 16 15
8 9 8 7 9 10 11 11 12 14 13 12 12 14 16 17 18 20 20 17 15 14 14 16 19 19 18 18 19 19 19 18 17 16 16 15 13 12 12 11 11 12 12 11 12 11 7 4 5 7 8 8 8 9 10 11 12 13 12 13 15 15 15 15 13 12 12 12 13 14 15 16 16 14
9 8 7 6 7 9 11 12 13 14 14 13 13 15 15 15 16 18 18 19 19 18 17 17 18 18 16 17 19 19 18 19 18 18 16 14 11 11 11 11 13 13 13 14 14 12 7 6 8 9 8 8 9 11 10 9 9 14 18 16 13 13 13 12 11 12 12 12 13 14 15 16 16 14
9 8 7 8 9 9 11 13 13 12 12 10 11 12 14 16 18 18 18 19 20 20 18 15 16 18 18 19 20 19 19 18 16 13 11 10 10 10 10 11 12 13 13 11 9 5 2 5 7 7 8 10 12 11 9 7 6 12 16 14 12 12 12 11 12 12 13 12 12 13 14 15 15 15
11 11 10 10 11 11 12 13 13 12 11 11 12 12 14 16 18 18 18 18 19 18 15 13 13 16 18 18 18 17 14 11 8 8 8 9 9 9 10 11 11 10 8 8 7 5 2 3 6 7 9 12 13 12 10 7 7 10 11 12 13 13 12 11 11 12 12 13 13 13 14 15 15 16
11 11 10 10 9 9 9 10 12 12 13 14 15 14 14 16 17 17 17 16 16 15 14 13 13 14 15 15 15 13 10 7 7 8 9 10 10 9 8 7 5 2 1 3 4 3 3 2 6 8 9 9 9 10 11 10 11 12 13 12 11 11 10 9 10 11 13 14 14 14 15 14 13 14
9 10 10 10 11 11 10 11 12 13 14 16 16 15 16 16 15 14 14 15 14 13 12 12 12 13 13 13 13 11 10 9 10 10 10 9 7 5 3 3 3 1 0 0 1 1 1 4 8 11 12 13 13 12 13 14 15 15 13 9 8 9 9 9 10 13 14 15 15 15 15 12 11 13
7 9 10 9 11 13 13 13 15 15 15 17 17 15 15 15 13 11 12 13 14 12 10 10 11 12 12 12 11 10 10 9 6 4 3 2 2 4 5 4 2 1 0 1 2 3 3 5 9 11 13 14 15 14 13 12 11 11 11 10 10 10 10 10 11 12 13 15 16 15 14 12 11 11
3 5 6 7 9 11 11 12 14 15 15 16 17 16 14 14 13 12 12 13 14 14 12 11 10 10 9 9 8 6 5 4 5 5 5 5 5 6 8 8 6 3 3 4 5 5 5 6 9 11 12 12 12 12 11 9 8 10 11 12 11 11 12 12 11 12 13 14 14 13 13 13 13 12
5 6 7 9 11 11 10 10 12 14 14 14 15 14 13 12 11 10 10 12 13 14 13 11 9 7 6 5 4 6 8 10 9 8 8 7 4 3 3 6 6 4 4 5 5 4 4 5 7 9 9 9 10 9 9 9 11 12 12 13 13 13 12 11 10 12 13 12 11 12 12 12 14 15
9 10 11 11 11 10 10 10 11 12 13 13 12 11 10 10 9 8 9 9 10 11 11 9 6 5 4 6 9 10 9 9 8 9 9 8 6 4 3 4 4 3 4 5 5 5 5 6 7 6 7 8 9 9 10 11 12 12 12 13 12 12 11 11 11 13 13 12 11 12 12 13 14 16
11 11 11 11 10 9 9 10 10 11 12 13 11 9 8 9 9 8 7 6 6 6 6 4 4 6 8 10 10 9 9 9 9 7 6 6 7 8 7 6 4 3 5 7 7 6 8 9 8 6 6 8 10 11 12 11 11 11 12 12 12 12 13 13 13 13 12 11 10 10 12 13 15 15
Wind_Direction
146 146 146 149 162 165 153 156 161 159 161 162 160 154 150 153 153 151 152 148 146 155 160 161 174 179 167 157 153 152 148 145 144 142 140 136 133 131 125 120 115 111 109 110 116 124 131 135 139 141 143 144 146 145 144 144 143 143 143 133 116 77 50 20 2 351 341 336 333 328 325 324 322 320
136 139 141 146 158 159 151 161 169 164 162 162 163 162 161 163 160 157 153 149 153 160 162 172 180 170 163 160 156 155 153 152 151 147 147 148 147 145 140 134 128 120 114 115 119 128 138 145 147 150 154 154 155 157 154 154 157 157 160 168 186 271 302 315 315 313 315 315 316 318 319 319 318 317
139 143 140 143 153 154 152 159 167 170 170 166 164 165 168 169 165 162 158 155 160 166 166 178 189 175 168 167 163 163 163 165 164 158 160 167 164 162 158 152 142 129 121 118 124 136 148 157 161 162 166 168 167 168 167 166 168 173 187 207 234 255 268 283 293 299 308 313 316 319 319 319 319 318
149 148 143 150 156 152 151 155 155 153 150 145 146 152 160 168 170 168 166 162 162 170 175 180 190 184 171 170 172 173 175 183 185 175 177 186 181 182 180 169 160 144 134 125 125 137 155 168 175 178 176 178 178 174 174 175 179 193 213 230 245 258 271 283 296 304 309 314 316 317 319 319 319 318
157 147 145 153 154 157 157 149 142 135 132 135 142 151 156 170 177 171 167 165 162 170 181 185 191 182 164 170 185 191 189 195 201 187 186 202 199 195 196 182 172 163 151 147 134 131 154 173 181 184 182 182 183 183 187 194 204 221 236 252 263 273 287 297 305 310 313 315 317 318 319 320 319 319
129 133 147 153 153 161 154 144 143 136 138 151 156 175 189 180 180 172 167 169 166 171 180 184 186 175 165 177 195 210 205 200 206 196 190 204 208 203 205 195 183 187 179 166 160 142 161 181 186 187 187 187 191 199 208 217 231 246 258 269 276 284 294 304 308 312 315 317 319 320 321 321 321 320
123 138 158 154 151 152 138 135 149 143 147 161 155 169 195 188 182 176 173 175 173 175 178 180 186 182 177 189 204 216 218 208 207 203 193 203 220 216 203 198 200 201 197 198 200 208 225 211 205 202 200 201 207 217 227 242 256 268 274 275 280 291 300 308 311 313 316 318 320 322 323 323 322 321
137 152 156 148 149 144 132 140 165 156 157 171 155 162 180 183 186 182 185 192 187 185 182 179 192 197 185 191 208 216 222 217 206 208 205 201 225 229 210 211 228 220 211 227 244 269 283 286 267 246 231 227 231 240 251 265 273 276 279 279 287 297 303 307 309 311 315 317 321 323 323 324 323 321
140 121 116 139 154 150 141 152 173 167 166 158 147 167 185 181 175 172 184 198 191 189 191 185 198 210 193 188 207 220 226 220 201 207 220 206 207 224 233 243 239 225 224 241 257 276 282 291 288 277 263 251 248 254 260 268 274 275 279 284 291 297 300 303 306 310 314 317 321 323 323 322 321 320
145 133 130 150 165 157 150 157 170 177 186 153 144 161 172 177 183 172 169 191 198 194 198 194 201 216 208 192 203 220 227 222 204 203 215 219 213 223 236 246 238 236 253 257 259 267 273 284 287 283 278 265 257 260 263 268 274 277 282 288 294 299 301 305 308 313 317 319 321 322 321 319 319 318
137 142 155 168 178 168 165 170 173 184 198 180 167 176 167 162 186 193 177 190 211 202 198 204 204 215 223 206 201 218 225 222 220 210 208 213 221 228 238 247 248 253 264 265 261 261 263 274 282 284 281 272 267 265 263 270 280 284 291 297 301 304 307 311 314 316 319 320 320 319 318 317 317 319
134 140 161 166 178 175 175 181 183 192 201 192 185 192 190 170 173 197 192 193 209 203 200 213 210 213 228 223 209 214 219 220 224 222 214 214 220 228 237 246 250 256 263 266 262 255 258 269 275 276 277 275 274 269 265 274 290 296 301 304 306 307 309 312 315 318 319 319 319 317 316 316 318 320
137 143 160 167 188 189 191 200 202 210 211 204 200 202 205 203 194 197 202 205 216 218 210 215 218 217 226 232 225 218 220 225 228 228 224 222 225 230 236 243 250 257 264 266 256 250 256 268 267 265 271 278 275 267 264 275 296 305 306 306 306 304 308 312 315 317 317 315 314 313 313 314 316 317
144 166 182 190 200 205 209 214 218 226 223 213 215 214 215 220 218 212 213 215 225 236 233 227 231 228 226 233 237 230 227 232 234 232 228 224 226 231 236 242 249 258 266 268 259 256 263 274 273 269 278 289 284 276 280 289 300 306 308 308 307 305 308 311 311 312 311 310 310 310 310 311 312 312
180 200 211 217 220 222 224 223 226 234 235 233 232 228 223 224 225 224 224 222 227 237 242 240 241 240 237 238 243 245 244 241 239 238 235 230 229 229 232 236 240 249 259 263 266 272 277 280 283 283 287 296 295 288 292 296 298 304 309 309 307 306 308 309 309 310 308 307 307 305 305 305 305 304
219 231 236 240 245 249 246 239 236 237 242 247 249 247 242 237 233 234 234 232 231 233 236 240 241 241 242 242 243 247 249 244 240 242 241 236 233 232 233 235 238 246 253 253 256 265 268 265 272 281 286 292 292 290 291 292 296 304 310 310 308 307 308 309 308 307 305 305 304 303 302 301 299 299
248 262 271 274 279 287 273 254 251 255 257 256 257 260 260 253 247 246 247 248 247 244 242 242 242 242 242 242 240 240 241 240 238 240 242 238 236 237 237 237 239 244 244 243 248 255 256 256 261 268 273 277 282 284 285 287 294 301 303 304 304 303 305 307 306 305 306 307 308 307 305 301 299 301
280 288 291 288 288 292 285 275 271 269 264 259 257 264 273 272 266 260 257 256 255 254 253 250 249 249 249 248 246 243 243 245 242 242 245 241 236 238 241 241 240 238 237 240 245 247 247 248 253 261 268 274 278 279 280 283 288 291 293 297 300 300 304 309 308 309 311 313 315 314 311 309 308 307
293 300 301 295 291 291 286 282 280 276 268 260 259 269 281 285 281 276 271 269 265 261 259 258 256 254 253 254 254 250 249 251 251 250 250 246 240 240 244 243 238 234 234 238 238 238 236 235 247 263 267 265 266 268 272 278 281 285 290 295 298 301 307 311 310 310 314 319 323 324 323 323 321 322
296 299 300 294 288 286 282 281 284 283 275 264 260 267 275 276 275 276 277 278 277 275 272 268 265 262 259 258 259 258 256 257 260 256 251 248 246 243 243 244 241 235 233 235 234 229 226 222 232 253 255 248 249 254 258 267 276 283 288 293 296 301 308 311 310 316 326 332 335 337 338 338 336 340
289 285 286 286 284 284 284 286 288 282 271 261 256 260 266 268 269 270 271 272 273 275 277 275 272 268 265 262 262 263 262 260 262 261 255 250 247 244 243 244 242 238 237 241 239 229 228 230 226 229 238 240 241 247 255 265 274 280 285 291 296 301 310 315 320 329 338 341 341 341 342 341 341 344
280 279 282 285 286 288 290 290 287 277 264 258 258 260 263 267 268 268 271 273 273 274 275 275 273 270 267 265 263 264 264 263 263 263 259 251 244 243 242 238 235 237 244 250 246 237 241 247 230 215 221 233 241 255 268 273 276 281 287 293 298 306 317 323 327 334 340 341 338 338 339 338 338 339
285 290 294 291 289 291 293 292 285 277 270 269 271 271 270 272 274 273 274 276 278 279 277 275 273 270 269 268 266 266 267 268 267 265 261 256 248 244 240 233 231 235 238 239 239 239 245 247 230 222 228 237 246 264 277 279 280 284 291 297 302 313 322 323 323 332 338 336 333 334 335 334 334 333
283 290 300 301 296 291 289 288 287 287 284 281 279 277 273 275 278 279 279 279 279 280 279 276 273 272 272 270 270 272 272 271 269 265 261 259 254 247 241 236 234 234 232 231 234 234 228 211 205 217 227 236 241 247 266 286 292 296 299 300 304 313 318 311 312 324 328 327 328 331 329 327 329 330
272 279 288 293 293 286 280 285 289 289 287 284 282 279 276 276 278 280 282 282 281 280 278 276 275 274 273 271 271 275 275 270 266 262 259 257 254 248 243 239 235 231 229 230 229 227 221 208 203 213 226 241 247 243 244 260 279 293 293 292 299 309 305 292 303 316 322 324 325 325 323 321 324 327
265 276 276 272 277 281 283 288 290 288 286 285 284 281 280 279 279 280 281 282 281 278 276 276 276 275 274 276 277 277 273 267 264 262 259 255 251 247 245 241 232 228 228 226 216 214 218 218 220 231 245 253 256 259 260 260 269 285 285 286 296 295 280 290 306 309 306 310 312 311 311 312 316 319
275 282 283 281 283 286 289 292 294 294 292 291 288 285 284 283 282 282 283 283 282 279 277 275 275 275 277 280 279 273 267 265 265 261 256 251 248 246 245 240 229 223 220 209 198 203 222 241 257 268 272 272 272 273 272 267 262 262 268 282 291 277 270 283 289 277 275 284 289 291 295 299 303 307
278 277 279 281 284 286 289 292 294 295 295 294 292 290 287 287 287 288 290 289 287 285 283 281 279 279 279 277 272 265 262 263 263 257 250 247 244 241 239 234 224 215 213 213 220 242 264 274 280 280 276 275 272 269 267 263 250 240 244 252 259 269 277 278 270 268 275 280 280 283 289 295 301 304
285 284 285 288 290 291 291 292 293 295 296 295 294 294 293 291 291 295 297 292 283 280 283 284 279 274 270 266 261 260 261 260 258 254 248 241 237 236 235 231 224 222 230 240 247 256 265 273 278 275 268 266 265 263 265 261 250 245 251 253 251 266 281 277 271 276 282 284 286 291 295 302 308 311
301 300 301 305 308 307 305 302 301 301 300 297 296 297 297 295 294 297 300 292 278 270 270 271 267 261 260 260 257 255 255 253 252 252 249 244 239 234 228 223 223 226 233 241 249 258 268 273 268 259 254 254 259 264 264 261 257 257 260 261 263 274 277 277 280 286 288 290 296 298 300 307 311 313
305 305 307 314 319 321 323 323 322 323 321 314 307 304 304 305 303 300 300 300 291 280 272 267 264 264 264 262 257 251 248 246 246 245 244 245 243 231 216 212 217 225 234 243 251 257 260 254 243 239 242 248 257 262 257 250 254 259 255 255 280 282 279 281 288 292 294 295 298 300 303 307 309 311
300 305 309 315 322 330 335 334 334 336 335 328 323 318 314 314 314 311 309 311 305 290 277 269 266 263 260 255 250 245 241 238 237 236 238 240 235 220 211 213 218 222 227 230 235 240 241 241 242 246 252 259 265 263 251 242 248 251 242 250 279 275 274 283 290 293 295 295 297 302 303 301 304 308
309 315 322 330 342 349 345 337 334 334 327 324 326 323 317 315 319 323 324 319 308 295 284 274 267 260 254 248 241 236 233 231 231 233 234 230 218 210 213 217 214 213 216 219 226 232 235 245 259 268 272 279 284 276 270 273 270 250 229 251 275 271 270 279 284 286 292 295 297 300 299 299 305 310
325 333 346 359 358 348 334 319 317 324 328 330 328 321 317 318 322 325 324 319 312 305 295 283 272 262 253 245 234 227 229 231 229 225 222 217 212 213 216 211 202 205 212 216 223 228 231 252 285 292 293 296 302 301 295 293 290 275 252 262 272 270 272 281 285 281 284 292 299 301 301 303 308 311
357 2 360 351 341 333 323 314 312 313 315 321 323 318 318 322 321 318 317 318 316 315 307 290 275 261 247 232 220 216 220 221 213 205 204 206 208 208 205 202 203 210 212 209 207 208 208 225 257 269 282 293 298 300 294 287 283 273 259 259 268 274 281 288 288 281 281 290 298 302 304 306 309 310
28 12 350 331 324 322 321 321 319 314 314 320 325 323 321 317 310 307 310 314 315 318 317 300 276 257 236 217 211 211 212 210 204 199 199 203 208 208 209 213 214 216 219 217 212 209 217 237 241 246 260 274 282 287 291 295 283 258 246 251 274 291 294 290 283 281 287 292 296 301 304 305 308 312
18 356 342 338 331 322 319 317 312 309 310 311 313 315 311 307 304 304 306 310 313 315 313 298 272 252 234 219 213 209 204 203 206 205 202 206 214 219 224 228 228 229 230 223 207 192 234 270 266 264 266 269 273 280 290 300 275 243 240 254 284 300 299 292 285 284 288 291 294 297 301 304 308 311
5 355 352 349 342 340 341 334 321 313 309 302 299 301 300 302 309 314 315 319 321 316 304 285 263 247 234 224 216 210 207 211 218 214 214 224 233 239 244 243 240 241 232 210 192 174 175 252 276 280 277 275 272 270 274 269 236 230 249 274 292 297 298 297 294 292 292 295 296 296 297 301 304 306
7 2 354 346 340 338 337 328 316 312 310 306 306 309 308 309 317 324 328 332 331 319 299 281 266 254 245 237 229 224 227 233 229 226 236 247 251 253 250 236 221 211 185 195 206 200 187 242 282 285 288 295 286 270 268 262 251 261 283 300 309 309 302 294 296 302 304 305 302 294 292 294 299 305
13 3 346 334 329 324 321 318 315 315 315 313 316 325 328 324 322 326 336 342 338 321 301 288 283 277 267 254 243 237 237 236 238 248 258 258 249 240 225 200 183 167 141 310 318 299 253 281 293 293 300 312 312 299 288 279 274 281 293 299 307 314 309 300 303 309 309 308 304 297 292 292 301 309
29 14 356 340 330 326 328 329 329 331 332 327 327 337 344 339 333 338 347 347 339 330 319 310 302 291 274 255 242 240 240 239 243 252 245 204 126 86 67 42 358 256 188 31 9 343 301 288 295 304 312 318 320 317 310 301 297 303 303 295 297 309 312 310 310 309 306 306 305 301 297 294 294 299
26 8 345 326 316 317 324 327 329 339 348 342 334 337 343 345 348 354 353 344 334 328 323 317 307 290 270 255 245 234 210 164 126 104 96 89 79 68 48 23 9 19 21 341 305 288 287 290 300 313 320 323 328 334 336 331 323 318 313 308 309 314 314 314 313 309 305 305 306 307 308 304 299 297
350 331 317 312 311 313 317 317 320 332 346 347 341 337 336 339 347 352 347 338 329 323 318 313 304 287 268 242 193 153 135 125 115 97 80 73 78 91 33 353 339 343 353 332 308 307 323 315 311 321 331 332 331 330 327 321 317 315 316 315 313 313 314 315 313 311 310 311 311 312 313 310 306 305
357 345 335 330 324 319 317 316 318 326 335 341 343 337 328 327 333 335 331 329 327 323 318 310 289 253 208 165 146 138 129 117 100 83 71 59 45 35 21 345 318 304 317 325 332 341 326 295 286 308 334 333 320 309 306 311 315 318 319 319 321 325 326 318 310 308 310 311 312 314 315 312 308 306
7 2 359 359 358 351 340 329 322 318 319 323 330 331 326 327 331 327 322 328 341 338 321 287 221 184 166 154 144 133 119 106 93 78 59 28 359 350 354 352 332 305 312 321 325 322 310 300 294 299 309 314 318 318 318 319 319 319 322 325 328 329 325 320 316 316 315 316 318 316 312 309 309 308